Flag for Germany Past Weather in Neumarkt in der Oberpfalz, Bavaria, Germany — Yesterday and Last 2 Weeks

Now
40 °F

Sunny.


Feels Like: 40 °F
Forecast: 28 / 40 °F
Wind: No wind

Location: Hohenfels

Current Time: Dec 10, 2016 at 12:11:38 pm

Latest Report: Dec 10, 2016 at 10:58 am


Visibility: N/A

Pressure: 30.37 "Hg

Humidity: 84%

Dew Point: 35 °F

Location of Neumarkt in der OberpfalzLocation

Past Weather in Neumarkt in der Oberpfalz — Graph

°F

Neumarkt in der Oberpfalz Temperature Yesterday

Maximum temperature yesterday: 41 °F (at 1:58 pm)
Minimum temperature yesterday: 21 °F (at 6:58 am)
Average temperature yesterday: 31 °F

High & Low Weather Summary for the Past Weeks

 TemperatureHumidityPressure
High47 °F (Nov 25, 1:58 pm)100% (Nov 25, 9:58 pm)30.69 "Hg (Nov 25, 9:58 pm)
Low12 °F (Dec 5, 3:58 am)56% (Nov 30, 9:58 pm)30.01 "Hg (Nov 26, 2:03 pm)
Average30 °F92%30.39 "Hg
* Reported Nov 25 10:00 am — Dec 10 10:58 am, Neumarkt in der Oberpfalz, Weather by CustomWeather, © 2016

Note: Actual official high and low records may vary slightly from our data, if they occured in-between our weather recording intervals... More about our weather records

Advertising

Neumarkt in der Oberpfalz Weather History for the Previous 24 Hours

Scroll right to see more
 ConditionsComfort  
Time TempWeatherWind HumidityBarometerVisibility
10:58 am
Sat, Dec 10
40 °FSunny.No wind84%30.37 "HgN/A
9:58 am35 °FSunny.No wind98%30.40 "HgN/A
8:54 am32 °FIce fog.No wind100%30.33 "Hg0 mi
7:58 am31 °FIce fog.No wind99%30.39 "Hg0 mi
6:58 am32 °FIce fog.No wind100%30.40 "Hg3 mi
5:58 am34 °FFog.No wind99%30.40 "Hg4 mi
4:58 am34 °FFog.No wind100%30.40 "Hg3 mi
3:58 am34 °FFog.No wind100%30.42 "Hg2 mi
2:58 am33 °FFog.No wind99%30.45 "Hg1 mi
1:58 am33 °FFog.No wind99%30.44 "Hg1 mi
12:58 am34 °FFog.No wind100%30.46 "Hg4 mi
11:58 pm
Fri, Dec 9
36 °FFog.No wind100%30.48 "Hg5 mi
10:58 pm36 °FFog.No wind100%30.50 "Hg5 mi
9:58 pm36 °FFog.No wind99%30.50 "Hg6 mi
8:58 pm40 °FLow clouds.No wind99%30.51 "HgN/A
7:58 pm40 °FMostly cloudy.3 mph97%30.53 "HgN/A
6:58 pm36 °FOvercast.No wind98%30.53 "HgN/A
5:58 pm36 °FOvercast.No wind99%30.55 "HgN/A
4:58 pm37 °FOvercast.No wind93%30.54 "HgN/A
3:58 pm39 °FOvercast.No wind86%30.53 "HgN/A
2:58 pm39 °FOvercast.No wind95%30.52 "HgN/A
1:58 pm41 °FMostly cloudy.No wind81%30.52 "HgN/A
12:58 pm38 °FOvercast.No wind88%30.52 "HgN/A
Weather by CustomWeather, © 2016

See weather overviewHow to use our weather pages